Location: PSU-Greenbush Astrophysical Observatory
(37.5140°N, 94.9880°W)
Time: 09:19:35
(UTC-06:00)

Altair - Pass Details

Date: 25 January 2020
Orbit: 1502 x 1682 km, 47.2° (Epoch: 25 February)

Event Time Altitude Azimuth Distance (km) Brightness Sun altitude
Rises 13:52:24 0° 299° (WNW) 4,938 10.1 30.5°
Reaches altitude 10° 13:55:38 10° 302° (WNW) 3,946 9.7 30.2°
Maximum altitude 14:05:48 71° 26° (NNE) 1,741 8.0 29.4°
Drops below altitude 10° 14:15:41 10° 110° (ESE) 3,845 9.6 28.5°
Sets 14:18:46 0° 112° (ESE) 4,807 10.0 28.2°
